Location: Altmatt
(47.1333°N, 8.7000°E)
Time: 02:44:16
(UTC+00:00)

USA 215 - Pass Details

Date: 13 July 2020
Orbit: 1102 x 1106 km, 123.0° (Epoch: 31 July)

Event Time Altitude Azimuth Distance (km) Brightness Sun altitude
Rises 22:08:10 0° 53° (NE) 3,926 6.4 -18.7°
Reaches altitude 10° 22:10:42 10° 56° (ENE) 2,965 5.7 -18.9°
Maximum altitude 22:17:12 66° 139° (SE) 1,196 3.2 -19.2°
Drops below altitude 10° 22:23:41 10° 221° (SW) 2,953 5.2 -19.6°
Enters shadow 22:24:52 - 223° (SW) 3,404 5.5 -19.6°
